Flag for Spain Weather past 2 weeks in Las Palmas, Canary Islands, Spain

Now
68 °F

Passing clouds.


Feels Like: 68 °F
Forecast: 62 / 70 °F
Wind: 22 mph from Northeast

Location: Las Palmas De Gran Canaria / Gando

Current Time: Apr 1, 2015 at 2:14:50 PM

Latest Report: Apr 1, 2015 at 1:30 PM


Visibility: N/A

Pressure: 30.18 "Hg

Humidity: 64%

Dew point: 55 °F

Location of Las PalmasLocation

Historic Weather in Las Palmas — Graph

°F

Las Palmas temperature yesterday

Maximum temperature yesterday: 68 °F (at 12:30 PM)
Minimum temperature yesterday: 61 °F (at 2:30 AM)
Average temperature yesterday: 64 °F

Past Weeks' High & Low Weather Summary

 TemperatureHumidityPressure
High73 °F (Mar 30, 12:30 PM)88% (Mar 23, 11:30 AM)30.33 "Hg (Mar 23, 11:30 AM)
Low54 °F (Mar 21, 5:30 AM)40% (Mar 19, 3:00 PM)29.83 "Hg (Mar 22, 2:00 PM)
Average63 °F69%30.12 "Hg
* Reported Mar 17 12:00 Noon — Apr 1 1:00 PM, Las Palmas, Weather by CustomWeather, © 2015

Note: Actual official high and low records may vary slightly from our data, if they occured in-between our weather recording intervals... More about our weather records

Advertising

Las Palmas weather history for previous 24 hours

 ConditionsComfort  
Time TempWeatherWind HumidityBarometerVisibility
1:00 PM
Wed, Apr 1
66 °FPassing clouds.21 mph68%30.21 "HgN/A
12:30 PM66 °FPassing clouds.22 mph68%30.21 "HgN/A
12:00 PM66 °FPassing clouds.23 mph68%30.21 "HgN/A
11:30 AM66 °FPassing clouds.23 mph68%30.21 "HgN/A
11:00 AM64 °FPassing clouds.22 mph73%30.21 "HgN/A
10:30 AM64 °FPassing clouds.22 mph73%30.21 "HgN/A
10:00 AM64 °FPassing clouds.21 mph73%30.21 "HgN/A
9:30 AM63 °FPassing clouds.21 mph77%30.21 "HgN/A
9:00 AM61 °FPassing clouds.20 mph83%30.18 "HgN/A
8:30 AM61 °FPassing clouds.20 mph83%30.18 "HgN/A
8:00 AM61 °FPassing clouds.21 mph77%30.18 "HgN/A
7:30 AM61 °FPassing clouds.18 mph77%30.18 "HgN/A
7:00 AM61 °FPassing clouds.16 mph83%30.18 "HgN/A
6:30 AM61 °FPassing clouds.20 mph83%30.18 "HgN/A
6:00 AM61 °FPassing clouds.20 mph83%30.18 "HgN/A
5:30 AM61 °FPassing clouds.20 mph83%30.18 "HgN/A
5:00 AM61 °FPassing clouds.22 mph83%30.18 "HgN/A
4:30 AM61 °FPassing clouds.22 mph83%30.18 "HgN/A
4:00 AM61 °FPassing clouds.26 mph83%30.18 "HgN/A
3:30 AM61 °FPassing clouds.25 mph83%30.18 "HgN/A
3:00 AM61 °FPassing clouds.23 mph83%30.21 "HgN/A
2:30 AM61 °FPassing clouds.25 mph83%30.21 "HgN/A
2:00 AM63 °FPassing clouds.23 mph83%30.24 "HgN/A
1:30 AM61 °FPassing clouds.24 mph88%30.24 "HgN/A
1:00 AM63 °FPassing clouds.22 mph83%30.24 "HgN/A
12:30 AM63 °FPassing clouds.23 mph83%30.24 "HgN/A
12:00 AM63 °FPassing clouds.21 mph83%30.24 "HgN/A
11:30 PM
Tue, Mar 31
63 °FPassing clouds.21 mph83%30.24 "HgN/A
11:00 PM63 °FPassing clouds.23 mph83%30.24 "HgN/A
10:30 PM63 °FPassing clouds.22 mph83%30.24 "HgN/A
10:00 PM63 °FPassing clouds.20 mph83%30.24 "HgN/A
9:30 PM63 °FPassing clouds.21 mph83%30.21 "HgN/A
9:00 PM63 °FPassing clouds.23 mph83%30.21 "HgN/A
8:30 PM63 °FPassing clouds.22 mph83%30.21 "HgN/A
8:00 PM63 °FPassing clouds.23 mph83%30.21 "HgN/A
7:30 PM64 °FPassing clouds.22 mph78%30.21 "HgN/A
7:00 PM66 °FPassing clouds.24 mph73%30.21 "HgN/A
6:30 PM66 °FPassing clouds.22 mph73%30.21 "HgN/A
6:00 PM66 °FPassing clouds.25 mph73%30.21 "HgN/A
5:30 PM68 °FPassing clouds.25 mph69%30.21 "HgN/A
5:00 PM68 °FPassing clouds.25 mph69%30.24 "HgN/A
4:30 PM68 °FPassing clouds.25 mph69%30.24 "HgN/A
4:00 PM68 °FPassing clouds.26 mph69%30.24 "HgN/A
3:30 PM68 °FPassing clouds.26 mph69%30.24 "HgN/A
3:00 PM68 °FPassing clouds.26 mph69%30.24 "HgN/A
2:30 PM68 °FPassing clouds.26 mph69%30.27 "HgN/A
2:00 PM68 °FPassing clouds.24 mph69%30.27 "HgN/A
Weather by CustomWeather, © 2015

See weather overviewHow to use our weather pages